| time (UTC) | temp F | wind direction | speed MPH | gust MPH | rain 1hr in | rain 24hr in | rain mn in | humidity % | barometer mb |
| 20260506090349 | 51 | 0 | 0.0 | 0.0 | 0.00 | 0.00 | 0.00 | 63 | 1002.1 |
| 20260506084852 | 50 | 0 | 0.0 | 0.0 | 0.00 | 0.00 | 0.00 | 63 | 1001.7 |
| 20260506083352 | 50 | 0 | 0.0 | 0.0 | 0.00 | 0.00 | 0.00 | 63 | 1002.0 |
| 20260506081849 | 50 | 0 | 0.0 | 0.0 | 0.00 | 0.00 | 0.00 | 63 | 1002.0 |
| 20260506080352 | 50 | 0 | 0.0 | 0.0 | 0.00 | 0.00 | 0.00 | 63 | 1001.9 |
| 20260506073349 | 49 | 0 | 0.0 | 0.0 | 0.00 | 0.00 | 0.00 | 62 | 1001.6 |
| 20260506071849 | 49 | 0 | 0.0 | 0.0 | 0.00 | 0.00 | 0.00 | 62 | 1001.6 |
| 20260506070352 | 49 | 0 | 0.0 | 0.0 | 0.00 | 0.00 | 0.00 | 62 | 1001.8 |
| 20260506061849 | 49 | 0 | 0.0 | 0.0 | 0.00 | 0.00 | 0.00 | 63 | 1001.9 |
| 20260506060352 | 49 | 0 | 0.0 | 0.0 | 0.00 | 0.00 | 0.00 | 63 | 1001.7 |
| 20260506050352 | 48 | 0 | 0.0 | 0.0 | 0.00 | 0.00 | 0.00 | 63 | 1001.4 |
| 20260506044852 | 48 | 0 | 0.0 | 0.0 | 0.00 | 0.00 | 0.00 | 65 | 1001.8 |
| 20260506043349 | 48 | 0 | 0.0 | 0.0 | 0.00 | 0.00 | 0.00 | 65 | 1001.8 |
| 20260506041852 | 48 | 0 | 0.0 | 0.0 | 0.00 | 0.00 | 0.00 | 66 | 1001.8 |
| 20260506040352 | 48 | 0 | 0.0 | 0.0 | 0.00 | 0.00 | 0.00 | 67 | 1001.9 |
| 20260506034849 | 47 | 0 | 0.0 | 0.0 | 0.00 | 0.00 | 0.00 | 68 | 1002.0 |
| 20260506033349 | 47 | 0 | 0.0 | 0.0 | 0.00 | 0.02 | 0.00 | 68 | 1002.1 |
| 20260506031849 | 47 | 0 | 0.0 | 0.0 | 0.00 | 0.02 | 0.00 | 68 | 1002.1 |
| 20260506030352 | 47 | 0 | 0.0 | 0.0 | 0.00 | 0.02 | 0.00 | 69 | 1002.2 |
| 20260506024849 | 47 | 0 | 0.0 | 0.0 | 0.00 | 0.05 | 0.00 | 70 | 1002.4 |
| 20260506023349 | 47 | 0 | 0.0 | 0.0 | 0.00 | 0.05 | 0.00 | 72 | 1002.6 |
| 20260506021852 | 47 | 0 | 0.0 | 0.0 | 0.00 | 0.05 | 0.00 | 72 | 1002.6 |
| 20260506020352 | 47 | 0 | 0.0 | 0.0 | 0.00 | 0.05 | 0.00 | 73 | 1002.7 |
| 20260506014849 | 47 | 0 | 0.0 | 0.0 | 0.00 | 0.05 | 0.00 | 72 | 1002.8 |
| 20260506013352 | 48 | 0 | 0.0 | 0.0 | 0.00 | 0.05 | 0.00 | 72 | 1002.7 |
| 20260506011849 | 48 | 0 | 0.0 | 0.0 | 0.00 | 0.05 | 0.00 | 72 | 1002.7 |
| 20260506010349 | 48 | 0 | 0.0 | 0.0 | 0.00 | 0.05 | 0.00 | 72 | 1002.7 |
| 20260506004850 | 48 | 0 | 0.0 | 0.0 | 0.00 | 0.05 | 0.00 | 72 | 1003.1 |
| 20260506003352 | 48 | 0 | 0.0 | 0.0 | 0.00 | 0.05 | 0.00 | 72 | 1003.1 |
| 20260506001849 | 48 | 0 | 0.0 | 0.0 | 0.00 | 0.05 | 0.00 | 73 | 1003.1 |
| 20260506000354 | 48 | 0 | 0.0 | 0.0 | 0.00 | 0.05 | 0.00 | 74 | 1003.1 |
| 20260505234849 | 48 | 0 | 0.0 | 0.0 | 0.00 | 0.05 | 0.00 | 74 | 1003.4 |
| 20260505233349 | 48 | 0 | 0.0 | 0.0 | 0.00 | 0.05 | 0.00 | 75 | 1003.5 |
| 20260505231852 | 48 | 0 | 0.0 | 0.0 | 0.00 | 0.05 | 0.00 | 76 | 1003.5 |
| 20260505230349 | 48 | 0 | 0.0 | 0.0 | 0.00 | 0.05 | 0.00 | 76 | 1003.4 |
| 20260505224849 | 48 | 0 | 0.0 | 0.0 | 0.00 | 0.05 | 0.00 | 76 | 1003.7 |
| 20260505223349 | 48 | 0 | 0.0 | 0.0 | 0.00 | 0.05 | 0.00 | 75 | 1003.7 |
| 20260505221852 | 49 | 0 | 0.0 | 0.0 | 0.00 | 0.05 | 0.00 | 74 | 1003.7 |
| 20260505220349 | 49 | 0 | 0.0 | 0.0 | 0.00 | 0.05 | 0.00 | 74 | 1003.9 |
| 20260505214849 | 49 | 0 | 0.0 | 0.0 | 0.00 | 0.05 | 0.00 | 74 | 1004.0 |
| 20260505213352 | 49 | 0 | 0.0 | 0.0 | 0.00 | 0.05 | 0.00 | 73 | 1004.1 |
| 20260505211852 | 50 | 0 | 0.0 | 0.0 | 0.00 | 0.05 | 0.00 | 72 | 1004.1 |
| 20260505210352 | 50 | 0 | 0.0 | 0.0 | 0.00 | 0.05 | 0.00 | 71 | 1004.1 |
| 20260505204852 | 50 | 0 | 0.0 | 0.0 | 0.00 | 0.05 | 0.00 | 70 | 1004.0 |
| 20260505203352 | 50 | 0 | 0.0 | 0.0 | 0.00 | 0.05 | 0.00 | 69 | 1003.9 |
| 20260505201849 | 51 | 0 | 0.0 | 0.0 | 0.00 | 0.05 | 0.00 | 68 | 1003.9 |
| 20260505200352 | 51 | 0 | 0.0 | 0.0 | 0.00 | 0.05 | 0.00 | 68 | 1003.9 |
| 20260505194849 | 51 | 0 | 0.0 | 0.0 | 0.00 | 0.05 | 0.00 | 67 | 1003.7 |
| 20260505193349 | 51 | 0 | 0.0 | 0.0 | 0.00 | 0.05 | 0.00 | 67 | 1003.9 |
| 20260505191849 | 51 | 0 | 0.0 | 0.0 | 0.00 | 0.05 | 0.00 | 67 | 1003.7 |
| 20260505190353 | 52 | 0 | 0.0 | 0.0 | 0.00 | 0.05 | 0.00 | 65 | 1003.7 |
| 20260505184849 | 52 | 0 | 0.0 | 0.0 | 0.00 | 0.05 | 0.00 | 64 | 1003.9 |
| 20260505183352 | 53 | 0 | 0.0 | 0.0 | 0.00 | 0.05 | 0.00 | 64 | 1003.9 |
| 20260505181849 | 53 | 0 | 0.0 | 0.0 | 0.00 | 0.05 | 0.00 | 64 | 1004.1 |
| 20260505180349 | 53 | 0 | 0.0 | 0.0 | 0.00 | 0.05 | 0.00 | 64 | 1004.1 |
| 20260505174849 | 54 | 0 | 0.0 | 0.0 | 0.00 | 0.05 | 0.00 | 64 | 1003.9 |
| 20260505173349 | 55 | 0 | 0.0 | 0.0 | 0.00 | 0.05 | 0.00 | 63 | 1004.0 |
| 20260505171852 | 55 | 0 | 0.0 | 0.0 | 0.00 | 0.05 | 0.00 | 64 | 1004.0 |
| 20260505170352 | 55 | 0 | 0.0 | 0.0 | 0.00 | 0.05 | 0.00 | 68 | 1004.0 |
| 20260505164849 | 55 | 0 | 0.0 | 0.0 | 0.00 | 0.05 | 0.00 | 68 | 1004.3 |
| 20260505163349 | 55 | 0 | 0.0 | 0.0 | 0.00 | 0.05 | 0.00 | 68 | 1003.8 |
| 20260505161849 | 55 | 0 | 0.0 | 0.0 | 0.00 | 0.05 | 0.00 | 68 | 1004.5 |
| 20260505160349 | 55 | 0 | 0.0 | 0.0 | 0.00 | 0.05 | 0.00 | 69 | 1004.5 |
| 20260505153349 | 55 | 0 | 0.0 | 0.0 | 0.00 | 0.05 | 0.00 | 71 | 1004.7 |
| 20260505151852 | 55 | 0 | 0.0 | 0.0 | 0.00 | 0.05 | 0.00 | 71 | 1004.4 |
| 20260505150352 | 55 | 0 | 0.0 | 0.0 | 0.00 | 0.05 | 0.00 | 73 | 1004.4 |
| 20260505140349 | 55 | 0 | 0.0 | 0.0 | 0.00 | 0.05 | 0.00 | 78 | 1004.8 |
| 20260505124852 | 55 | 0 | 0.0 | 0.0 | 0.00 | 0.05 | 0.00 | 91 | 1004.9 |
| 20260505123352 | 55 | 0 | 0.0 | 0.0 | 0.00 | 0.05 | 0.00 | 92 | 1004.7 |
| 20260505121849 | 54 | 0 | 0.0 | 0.0 | 0.00 | 0.05 | 0.00 | 93 | 1004.9 |
| 20260505120352 | 54 | 0 | 0.0 | 0.0 | 0.00 | 0.05 | 0.00 | 94 | 1004.9 |
| 20260505114849 | 54 | 0 | 0.0 | 0.0 | 0.00 | 0.05 | 0.00 | 96 | 1004.9 |
| 20260505113349 | 54 | 0 | 0.0 | 0.0 | 0.00 | 0.05 | 0.00 | 96 | 1005.0 |
| 20260505111849 | 53 | 0 | 0.0 | 0.0 | 0.00 | 0.05 | 0.00 | 97 | 1005.0 |
| 20260505110349 | 53 | 0 | 0.0 | 0.0 | 0.00 | 0.05 | 0.00 | 97 | 1005.0 |
| 20260505101852 | 52 | 0 | 0.0 | 0.0 | 0.00 | 0.05 | 0.00 | 97 | 1005.4 |
| 20260505100352 | 51 | 0 | 0.0 | 0.0 | 0.00 | 0.05 | 0.00 | 97 | 1005.4 |
| 20260505094852 | 51 | 0 | 0.0 | 0.0 | 0.00 | 0.05 | 0.00 | 97 | 1005.4 |
| 20260505093349 | 51 | 0 | 0.0 | 0.0 | 0.00 | 0.05 | 0.00 | 97 | 1005.5 |
| 20260505091849 | 50 | 0 | 0.0 | 0.0 | 0.00 | 0.05 | 0.00 | 97 | 1005.6 |